Location: McFarlands Corners
(41.4117°N, 81.3382°W)
Time: 08:09:38
(UTC+00:00)

Transit 2A - Visible Passes

Search period start: 16 February 2026 00:00
Search period end: 26 February 2026 00:00
Orbit: 589 x 955 km, 66.7° (Epoch: 15 February)

Date Brightness Start Highest point End Pass type
(mag) Time Alt. Az. Time Alt. Az. Time Alt. Az.
16 Feb 8.4 01:22:31 10° N 01:24:06 13° NNE 01:24:06 13° NNE visible
16 Feb 9.1 03:04:14 10° NNW 03:04:26 11° NNW 03:04:26 11° NNW visible
17 Feb 8.4 00:47:11 10° NNE 00:48:51 11° NNE 00:48:54 11° NNE visible
17 Feb 8.6 02:27:59 10° NNW 02:29:15 16° NNW 02:29:15 16° NNW visible
18 Feb 8.1 01:51:50 10° NNW 01:54:05 20° N 01:54:05 20° N visible
19 Feb 7.9 01:15:45 10° N 01:18:58 21° NNE 01:18:58 21° NNE visible
19 Feb 8.8 02:58:17 10° NW 02:59:19 15° NW 02:59:19 15° NW visible
20 Feb 7.9 00:39:49 10° N 00:43:41 17° NE 00:43:53 17° NE visible
20 Feb 8.1 02:21:52 10° NNW 02:24:14 24° NNW 02:24:14 24° NNW visible
21 Feb 8.1 00:04:06 10° N 00:06:51 13° NNE 00:08:51 11° NE visible
21 Feb 7.3 01:45:34 10° NNW 01:49:12 35° N 01:49:12 35° N visible
21 Feb 8.4 23:29:43 10° NNE 23:29:55 10° NNE 23:30:06 10° NNE visible
22 Feb 6.9 01:09:20 10° NNW 01:14:15 37° NE 01:14:15 37° NE visible
22 Feb 8.5 02:52:41 10° NW 02:54:36 19° WNW 02:54:36 19° WNW visible
23 Feb 7.2 00:33:13 10° NNW 00:38:17 28° NE 00:39:21 26° ENE visible
23 Feb 7.5 02:16:02 10° NW 02:19:43 36° WNW 02:19:43 36° WNW visible
23 Feb 7.6 23:57:10 10° N 00:01:35 21° NE 00:04:32 14° ENE visible
24 Feb 6.3 01:39:32 10° NNW 01:44:55 72° WNW 01:44:55 72° WNW visible
25 Feb 6.0 01:03:10 10° NNW 01:09:05 70° ENE 01:10:13 55° ESE visible
25 Feb 8.6 02:47:53 10° WNW 02:50:36 16° W 02:50:36 16° W visible
